Regional Weather Roundup
Issued by NWS

Home | Current Version | Previous Version | Graphics & Text | Print | Product List | Glossary Off
Versions: 1 2 3 4 5 6 7 8 9 10 11 12 13 14 15 16 17 18 19 20 21 22 23 24 25 26 27 28 29 30 31 32 33 34 35 36 37 38 39 40 41 42 43 44 45 46 47 48 49 50

000
ASUS43 KMKX 290600
RWRWI

WISCONSIN REGIONAL WEATHER ROUNDUP
NATIONAL WEATHER SERVICE MILWAUKEE/SULLIVAN WI
100 AM CDT TUE JUL 29 2014

NOTE: "FAIR" INDICATES FEW OR NO CLOUDS BELOW 12,000 FEET WITH NO
SIGNIFICANT WEATHER AND/OR OBSTRUCTIONS TO VISIBILITY.

WIZ001-002-006>008-014>016-023>028-290700-
NORTHWEST WISCONSIN

CITY           SKY/WX    TMP DP  RH WIND       PRES   REMARKS
SUPERIOR ARPT  MOCLDY    62  56  82 NE5       30.10R
ASHLAND        CLOUDY    59  55  87 CALM      30.08F
6HR MIN TEMP:  57; 6HR MAX TEMP:  71; 6HR PCP:  0.22;

HAYWARD        PTCLDY    57  53  86 N3        30.11R
6HR MIN TEMP:  55; 6HR MAX TEMP:  72;

SIREN          CLEAR     57  54  91 NW3       30.12S
RICE LAKE      NOT AVBL
LADYSMITH      CLEAR     60  54  81 CALM      30.12S
EAU CLAIRE     NOT AVBL
MENOMONIE      CLEAR     60  56  85 W5        30.11S
NEW RICHMOND   CLEAR     57  55  92 NW5       30.14R
OSCEOLA        CLEAR     56  56  97 CALM      30.16R
$$

WIZ003>005-009-010-017-018-290700-
NORTH CENTRAL WISCONSIN

CITY           SKY/WX    TMP DP  RH WIND       PRES   REMARKS
WOODRUFF       PTCLDY    57  54  89 NW6       30.07R
RHINELANDER    MOCLDY    56  54  93 W7        30.07R
6HR MIN TEMP:  56; 6HR MAX TEMP:  66; 6HR PCP:  0.02;

EAGLE RIVER    PTCLDY    53  53 100 CALM      30.06R
LAND O LAKES   PTCLDY    57  54  89 N8        30.07R
PHILLIPS       PTCLDY    56  55  95 CALM      30.09S
TOMAHAWK       MOCLDY    54  52  94 W5        30.07S
MEDFORD        LGT RAIN  57  55  92 W5        30.09F
MERRILL        MOCLDY    58  56  94 W3        30.07S
$$

WIZ029-030-035-036-043>047-290700-
CENTRAL WISCONSIN

CITY           SKY/WX    TMP DP  RH WIND       PRES   REMARKS
WAUSAU         CLOUDY    60  55  83 NW8       30.06R
6HR MIN TEMP:  60; 6HR MAX TEMP:  69; 6HR PCP: TRACE;

MOSINEE        PTCLDY    59  55  88 NW7       30.08S
MARSHFIELD     CLOUDY    62  54  74 N14       30.08S
6HR MIN TEMP:  58; 6HR MAX TEMP:  70;

STEVENS POINT  PTCLDY    62  54  75 NW7       30.06F
WAUPACA        CLOUDY    66  55  68 W5        30.04F
WAUTOMA        NOT AVBL
WISC RAPIDS    MOCLDY    60  55  83 NW3       30.08S
6HR MIN TEMP:  59; 6HR MAX TEMP:  71; 6HR PCP: TRACE;

CAMP DOUGLAS   NOT AVBL
$$

WIZ011>013-019>022-031-037>040-048>050-290700-
NORTHEAST WISCONSIN

CITY           SKY/WX    TMP DP  RH WIND       PRES   REMARKS
ANTIGO         PTCLDY    55  54  94 NW7       30.06S
STURGEON BAY   CLOUDY    64  55  72 NW8       30.00S
6HR MIN TEMP:  57; 6HR MAX TEMP:  64;

GREEN BAY      CLOUDY    62  56  80 W5        30.01F
6HR MIN TEMP:  61; 6HR MAX TEMP:  69;

MANITOWOC      NOT AVBL
APPLETON       NOT AVBL
CLINTONVILLE   PTCLDY    61  54  77 W5        30.03S
OSHKOSH        CLOUDY    63  55  75 W6        30.03F
6HR MIN TEMP:  62; 6HR MAX TEMP:  71;

$$

WIZ032>034-041-042-053>061-290700-
SOUTHWEST WISCONSIN

CITY           SKY/WX    TMP DP  RH WIND       PRES   REMARKS
LA CROSSE      CLEAR     60  56  86 S3        30.10S
6HR MIN TEMP:  58; 6HR MAX TEMP:  74;

SPARTA         MOCLDY    52  51  96 CALM      30.11S
VIROQUA        FAIR      56  54  91 W3        30.12S
BOSCOBEL       CLEAR     55  53  93 SW3       30.11S
6HR MIN TEMP:  54; 6HR MAX TEMP:  73;

PRAIRIE DU CHI CLEAR     55  52  88 CALM      30.12R
PLATTEVILLE    FAIR      55  52  88 CALM      30.12S
$$

WIZ056-057-062-063-064-067-068-290700-
SOUTH CENTRAL WISCONSIN

CITY           SKY/WX    TMP DP  RH WIND       PRES   REMARKS
BARABOO/DELLS  CLOUDY    62  51  67 W5        30.08S
LONE ROCK      NOT AVBL
WATERTOWN      PTCLDY    60  54  80 CALM      30.06S
MADISON        CLEAR     62  52  69 NW3       30.07S
6HR MIN TEMP:  62; 6HR MAX TEMP:  72;

MIDDLETON      FAIR      61  52  72 NW7       30.08S
MONROE         PTCLDY    59  52  77 NW8       30.09S
JANESVILLE     MOCLDY    61  52  72 NW7       30.07S
$$

WIZ051-052-058>065-066-070>072-290700-
SOUTHEAST WISCONSIN

CITY           SKY/WX    TMP DP  RH WIND       PRES   REMARKS
MILWAUKEE      MOCLDY    59  50  72 SW3       30.05S
6HR MIN TEMP:  58; 6HR MAX TEMP:  62;

WAUKESHA       CLEAR     59  52  77 CALM      30.06S
MILWAUKEE/TIMM PTCLDY    55  50  82 CALM      30.05S
RACINE         CLEAR     58  52  80 S3        30.06F
6HR MIN TEMP:  57; 6HR MAX TEMP:  62;

BURLINGTON     PTCLDY    56  53  88 NW6       30.05S
KENOSHA        MOCLDY    56  52  86 SW3       30.05F
6HR MIN TEMP:  56; 6HR MAX TEMP:  63;

FOND DU LAC    MOCLDY    63  54  72 W7        30.04S
6HR MIN TEMP:  62; 6HR MAX TEMP:  71;

SHEBOYGAN      CLOUDY    56  54  93 SW3       30.02F
6HR MIN TEMP:  54; 6HR MAX TEMP:  62;

WEST BEND      PTCLDY    55  52  88 CALM      30.04S
JUNEAU         PTCLDY    60  53  76 W3        30.07S
$$

LSZ147-162-290700-
LAKE SUPERIOR

STATION/POSITION TIME  TEMP    WIND        PRES    WAVE
                       AIR SEA DIR/SP/G            HT/PER
                 (UTC) (F)     (DEG/KT/KT) (MB)    (FT/S)
W MID LAKE BUOY  0450   50 43  300/  8/  8 1017.4F   1/ 3
PORT WING        0500   61      80/  4/  6 1019.0F
SAXON HARBOR     0500           50/  8/ 12 1019.0R
$$

LMZ867-665-643>646-290700-
LAKE MICHIGAN

STATION/POSITION TIME  TEMP    WIND        PRES    WAVE
                       AIR SEA DIR/SP/G            HT/PER
                 (UTC) (F)     (DEG/KT/KT) (MB)    (FT/S)
N MID LAKE BUOY  0450   57 54  250/  8/  8 1014.3F   1/ 3
NORTHPORT PIER   0500   65     290/  7/ 12 1014.9F
SISTER BAY       0510   65     330/ 12/ 14   N/A
ALGOMA LAKESHORE 0506             CALM       N/A
KEWAUNEE LAKESHO 0500   58     310/  5/  6 1016.6F
SHEBOYGAN LAKESH 0500   59     220/  6/  6 1017.0F
PORT WASHINGTON  0500   59     250/  5/  5 1017.9S
ATWATER BUOY     0500   62     180/  8     1018.1F
MILWAUKEE LAKESH 0500   60     190/  6/  6   N/A
S MID LAKE BUOY  0450   59 60  250/  4/  6 1017.7F   2/ 6
KENOSHA   LAKESH 0500   61     170/  5/  6 1017.6S
$$

TC  - TEMPERATURE IN CELSIUS
VSB - VISIBILITY IN STATUTE MILES
WCI - WIND CHILL INDEX
HX  - HEAT INDEX



USA.gov is the U.S. government's official web portal to all federal, state and local government web resources and services.